GW4186 Weather Reports


time (UTC)temp
F
wind
direction
speed
knots
gust
knots
rain 1hr
in
rain 24hr
in
rain mn
in
humidity
%
barometer
mb
20260504193054 47 114 11.3 18.2 0.00 0.03 0.03 82 988.2
20260504191600 45 119 11.3 16.5 0.00 0.03 0.03 85 988.1
20260504190110 44 124 9.6 15.6 0.00 0.03 0.03 87 988.2
20260504184616 43 139 7.8 17.4 0.00 0.03 0.03 88 988.4
20260504183054 43 111 7.0 13.9 0.00 0.03 0.03 89 988.3
20260504181555 43 115 7.0 16.5 0.01 0.03 0.03 89 988.5
20260504180053 42 85 8.7 15.6 0.01 0.03 0.03 91 988.4
20260504174559 41 114 7.0 14.8 0.01 0.03 0.03 92 988.4
20260504173057 41 56 7.0 15.6 0.01 0.03 0.03 92 988.4
20260504171549 41 100 7.8 16.5 0.01 0.02 0.02 90 988.4
20260504081552 31 34 2.6 4.3 0.00 0.02 0.00 76 988.7
20260504044558 32 156 2.6 7.8 0.00 0.03 0.00 76 988.3
20260504043052 32 151 1.7 7.0 0.00 0.03 0.00 76 988.5
20260504041554 31 113 2.6 7.0 0.00 0.03 0.00 78 988.4
20260504034559 32 136 2.6 6.1 0.00 0.03 0.03 77 988.2
20260504033125 31 104 1.7 7.0 0.00 0.03 0.03 78 988.2
20260504031549 31 126 1.7 6.1 0.00 0.03 0.03 77 988.2
20260504030049 32 120 3.5 7.0 0.00 0.03 0.03 76 988.3
20260504024550 32 159 2.6 4.3 0.00 0.03 0.03 76 988.3
20260504023101 31 124 0.9 3.5 0.00 0.03 0.03 76 988.3
20260504021552 32 144 1.7 4.3 0.00 0.03 0.03 76 988.3
20260504020057 32 125 1.7 4.3 0.00 0.03 0.03 76 988.2
20260504014551 32 156 1.7 5.2 0.00 0.03 0.03 76 988.3
20260504013104 32 152 3.5 7.8 0.00 0.03 0.03 75 988.3
20260504011552 32 170 4.3 7.0 0.00 0.03 0.03 75 988.2
20260504010104 33 158 3.5 7.8 0.00 0.03 0.03 74 988.1
20260504004605 33 166 7.0 11.3 0.00 0.03 0.03 73 987.8
20260504003051 34 149 7.8 13.0 0.00 0.03 0.03 72 987.5
20260504001554 34 160 7.0 13.0 0.00 0.03 0.03 71 987.4
20260504000053 35 162 9.6 14.8 0.00 0.03 0.03 70 987.2
20260503234551 36 168 12.2 18.2 0.00 0.03 0.03 66 987.2
20260503233054 36 180 13.9 21.7 0.00 0.03 0.03 65 987.1
20260503231549 36 144 13.0 22.6 0.00 0.03 0.03 64 987.2
20260503230057 36 155 13.0 23.5 0.00 0.03 0.03 65 987.0
20260503224549 37 166 10.4 19.1 0.00 0.03 0.03 64 986.8
20260503223057 37 163 13.0 21.7 0.00 0.03 0.03 62 986.7
20260503221552 38 131 11.3 22.6 0.00 0.03 0.03 61 986.8
20260503220050 37 163 13.9 21.7 0.00 0.03 0.03 63 986.6
20260503214550 37 175 13.0 19.1 0.00 0.03 0.03 62 986.6
20260503213104 38 158 10.4 18.2 0.00 0.03 0.03 62 986.6
20260503211549 38 175 10.4 22.6 0.00 0.03 0.03 59 986.6
20260503210057 39 130 13.0 20.0 0.00 0.03 0.03 59 986.5
20260503204555 39 164 9.6 20.0 0.00 0.03 0.03 58 986.6
20260503203051 39 175 13.9 21.7 0.00 0.03 0.03 58 986.4
20260503201553 39 156 10.4 21.7 0.00 0.03 0.03 58 986.4
20260503200057 39 146 13.9 23.5 0.00 0.03 0.03 56 986.5
20260503194556 40 141 11.3 20.0 0.00 0.03 0.03 57 986.6